Voltar ao catálogo

STARLINK-36993

AtivoComunicaçõesVLEO
NORAD 67994·PAYLOAD·🇺🇸 United States

Lançado Feb 27, 2026 de Vandenberg Space Force Base

Loading…

Próximas Passagens (próximas 24 horas)

TLE

AtualizadoSource: CelesTrak SupGP

Época: Sep 15, 2026, 03:16 UTC

1 67994C 26039J   26258.13659722 -.00023795  00000+0 -86160-3 0  2582
2 67994  43.0039  59.0276 0001838 271.3755 206.4715 15.27598639    16

Acompanhe STARLINK-36993 em tempo real com AllMySat

Download on the App Store